Precipitable_Water
0.48 0.48 0.52 0.56 0.60 0.63 0.67 0.71 0.73 0.77 0.80 0.82 0.84 0.85 0.86 0.86 0.85 0.85 0.86 0.85 0.85 0.84 0.81 0.80 0.80 0.78 0.77 0.77 0.76 0.76 0.78 0.80 0.85 0.88 0.90 0.90 0.91 0.93 0.96 0.96 0.97 0.97 0.97 0.96 0.98 0.97 0.96 0.94 0.94 0.96 0.99 1.00 1.01 1.04 1.06 1.08 1.11 1.13 1.16 1.19 1.21 1.25 1.24 1.20 1.11 1.09 1.18 1.34 1.34 1.35 1.43 1.47 1.42 1.47 1.42 1.44 1.46 1.49 1.52 1.51 1.51 1.49 1.47 1.49 1.49
0.48 0.48 0.51 0.55 0.58 0.61 0.65 0.70 0.73 0.75 0.75 0.78 0.80 0.82 0.82 0.82 0.80 0.78 0.76 0.75 0.75 0.74 0.72 0.71 0.72 0.73 0.72 0.71 0.71 0.71 0.73 0.76 0.81 0.84 0.83 0.83 0.83 0.88 0.91 0.93 0.93 0.90 0.87 0.84 0.86 0.87 0.87 0.87 0.88 0.89 0.92 0.92 0.96 0.97 0.98 0.99 1.01 1.02 1.06 1.09 1.12 1.16 1.23 1.18 1.14 1.09 1.07 1.20 1.24 1.35 1.36 1.45 1.35 1.47 1.44 1.44 1.44 1.50 1.49 1.48 1.51 1.51 1.49 1.51 1.49
0.48 0.50 0.49 0.50 0.56 0.62 0.66 0.68 0.70 0.71 0.71 0.73 0.76 0.78 0.79 0.80 0.78 0.73 0.70 0.70 0.70 0.68 0.67 0.66 0.67 0.68 0.68 0.68 0.67 0.68 0.69 0.71 0.75 0.78 0.78 0.77 0.77 0.82 0.86 0.87 0.85 0.80 0.77 0.75 0.74 0.75 0.76 0.78 0.78 0.81 0.84 0.84 0.86 0.87 0.89 0.90 0.93 0.92 0.94 1.00 1.03 1.09 1.13 1.14 1.08 1.01 1.00 1.06 1.19 1.19 1.24 1.31 1.33 1.37 1.46 1.53 1.53 1.54 1.49 1.48 1.48 1.49 1.52 1.54 1.53
0.47 0.50 0.49 0.48 0.55 0.60 0.64 0.66 0.67 0.69 0.69 0.72 0.73 0.77 0.79 0.79 0.77 0.71 0.69 0.69 0.66 0.65 0.64 0.62 0.62 0.63 0.63 0.61 0.61 0.62 0.64 0.66 0.68 0.71 0.73 0.74 0.76 0.80 0.83 0.83 0.79 0.76 0.74 0.71 0.69 0.67 0.67 0.68 0.68 0.69 0.71 0.70 0.72 0.74 0.78 0.82 0.85 0.89 0.90 0.93 0.96 0.98 1.03 1.08 1.09 1.04 1.03 0.97 1.03 1.06 1.15 1.16 1.24 1.36 1.42 1.47 1.47 1.47 1.51 1.51 1.52 1.48 1.50 1.53 1.53
0.47 0.49 0.49 0.48 0.53 0.59 0.62 0.64 0.65 0.66 0.67 0.69 0.70 0.73 0.75 0.76 0.74 0.70 0.69 0.66 0.63 0.60 0.58 0.56 0.54 0.54 0.54 0.54 0.55 0.58 0.61 0.65 0.67 0.69 0.72 0.74 0.76 0.79 0.80 0.80 0.77 0.74 0.72 0.70 0.68 0.64 0.63 0.61 0.59 0.58 0.57 0.55 0.57 0.59 0.64 0.67 0.72 0.75 0.77 0.83 0.87 0.90 0.95 0.98 1.00 1.02 0.98 0.95 0.99 1.08 1.13 1.16 1.21 1.23 1.24 1.20 1.29 1.35 1.38 1.39 1.43 1.43 1.42 1.46 1.48
0.46 0.48 0.48 0.47 0.51 0.56 0.60 0.62 0.63 0.64 0.65 0.66 0.68 0.69 0.70 0.72 0.71 0.69 0.68 0.64 0.60 0.55 0.54 0.52 0.50 0.49 0.49 0.51 0.53 0.56 0.61 0.64 0.66 0.67 0.69 0.72 0.73 0.76 0.78 0.78 0.76 0.72 0.70 0.69 0.67 0.65 0.61 0.58 0.56 0.54 0.52 0.50 0.49 0.51 0.54 0.55 0.58 0.60 0.63 0.67 0.72 0.77 0.80 0.84 0.89 0.90 0.92 0.93 0.95 0.95 1.05 1.05 1.03 1.06 1.11 1.12 1.11 1.12 1.17 1.26 1.33 1.37 1.35 1.34 1.38
0.43 0.43 0.48 0.48 0.48 0.51 0.56 0.59 0.62 0.62 0.64 0.65 0.67 0.67 0.66 0.66 0.66 0.65 0.64 0.58 0.51 0.46 0.45 0.43 0.41 0.40 0.40 0.42 0.45 0.49 0.55 0.59 0.62 0.64 0.65 0.67 0.67 0.68 0.68 0.70 0.70 0.67 0.64 0.62 0.61 0.60 0.57 0.55 0.54 0.53 0.51 0.51 0.50 0.50 0.50 0.50 0.51 0.52 0.55 0.57 0.61 0.62 0.64 0.67 0.70 0.73 0.76 0.77 0.81 0.87 0.89 0.95 0.94 0.92 1.01 1.06 1.08 1.08 1.04 1.06 1.12 1.26 1.30 1.30 1.29
0.42 0.43 0.47 0.48 0.49 0.50 0.54 0.58 0.58 0.61 0.63 0.63 0.62 0.61 0.59 0.57 0.56 0.55 0.51 0.47 0.43 0.40 0.35 0.29 0.27 0.27 0.27 0.29 0.33 0.38 0.42 0.46 0.50 0.53 0.56 0.58 0.59 0.58 0.57 0.56 0.54 0.53 0.52 0.51 0.50 0.50 0.50 0.50 0.50 0.50 0.50 0.50 0.49 0.49 0.49 0.48 0.50 0.50 0.52 0.52 0.51 0.51 0.52 0.55 0.57 0.59 0.61 0.62 0.62 0.65 0.72 0.74 0.79 0.85 0.91 0.93 0.92 0.99 1.04 1.03 0.99 1.03 1.10 1.19 1.27
0.42 0.44 0.46 0.48 0.48 0.51 0.54 0.53 0.53 0.54 0.54 0.53 0.53 0.52 0.50 0.48 0.48 0.48 0.46 0.43 0.40 0.37 0.33 0.26 0.24 0.23 0.25 0.26 0.28 0.31 0.32 0.35 0.38 0.40 0.41 0.43 0.45 0.45 0.46 0.44 0.42 0.39 0.37 0.37 0.38 0.38 0.39 0.40 0.41 0.42 0.43 0.43 0.43 0.44 0.45 0.47 0.46 0.44 0.46 0.47 0.47 0.47 0.47 0.48 0.48 0.49 0.50 0.51 0.52 0.56 0.57 0.58 0.61 0.63 0.66 0.69 0.71 0.74 0.86 0.94 0.95 1.00 1.03 1.05 1.13
0.42 0.42 0.41 0.44 0.47 0.51 0.52 0.52 0.51 0.50 0.50 0.49 0.49 0.49 0.48 0.46 0.44 0.43 0.43 0.42 0.40 0.37 0.32 0.27 0.25 0.24 0.23 0.26 0.28 0.30 0.31 0.34 0.37 0.38 0.39 0.39 0.40 0.40 0.40 0.38 0.35 0.33 0.30 0.27 0.28 0.29 0.30 0.31 0.33 0.34 0.33 0.34 0.34 0.34 0.36 0.37 0.40 0.41 0.41 0.40 0.40 0.41 0.42 0.43 0.44 0.45 0.46 0.45 0.46 0.47 0.46 0.48 0.52 0.55 0.57 0.61 0.65 0.68 0.68 0.72 0.73 0.82 0.88 0.91 0.98
0.41 0.40 0.39 0.46 0.48 0.49 0.48 0.49 0.49 0.48 0.48 0.49 0.49 0.48 0.48 0.47 0.46 0.45 0.43 0.39 0.37 0.35 0.31 0.27 0.26 0.24 0.22 0.23 0.25 0.29 0.31 0.34 0.36 0.37 0.38 0.40 0.41 0.40 0.38 0.35 0.34 0.33 0.31 0.27 0.26 0.27 0.29 0.31 0.32 0.33 0.32 0.32 0.32 0.32 0.33 0.33 0.33 0.34 0.35 0.36 0.36 0.35 0.34 0.35 0.37 0.40 0.41 0.41 0.44 0.44 0.44 0.44 0.47 0.50 0.52 0.54 0.57 0.58 0.59 0.63 0.65 0.66 0.66 0.66 0.66
0.40 0.41 0.42 0.46 0.48 0.48 0.47 0.46 0.47 0.46 0.46 0.48 0.50 0.51 0.51 0.50 0.47 0.47 0.45 0.40 0.39 0.38 0.33 0.31 0.28 0.24 0.22 0.21 0.23 0.26 0.30 0.33 0.35 0.37 0.39 0.40 0.41 0.40 0.38 0.35 0.34 0.33 0.31 0.26 0.25 0.26 0.27 0.28 0.30 0.31 0.32 0.32 0.32 0.32 0.33 0.33 0.34 0.34 0.34 0.35 0.36 0.36 0.36 0.34 0.33 0.32 0.34 0.34 0.36 0.38 0.40 0.41 0.43 0.46 0.47 0.48 0.50 0.52 0.55 0.56 0.58 0.59 0.59 0.60 0.64
0.42 0.42 0.42 0.45 0.46 0.47 0.47 0.46 0.46 0.46 0.46 0.47 0.50 0.52 0.51 0.50 0.48 0.46 0.44 0.42 0.40 0.38 0.35 0.32 0.29 0.24 0.21 0.19 0.20 0.22 0.26 0.30 0.34 0.37 0.38 0.39 0.39 0.38 0.36 0.35 0.32 0.31 0.28 0.24 0.23 0.23 0.24 0.25 0.26 0.28 0.29 0.30 0.30 0.30 0.30 0.30 0.32 0.33 0.34 0.34 0.35 0.36 0.36 0.37 0.38 0.37 0.37 0.34 0.32 0.33 0.34 0.37 0.37 0.39 0.44 0.45 0.49 0.46 0.48 0.49 0.51 0.54 0.56 0.57 0.60
0.41 0.41 0.42 0.45 0.45 0.46 0.46 0.46 0.47 0.48 0.48 0.47 0.48 0.49 0.49 0.48 0.47 0.47 0.45 0.41 0.38 0.38 0.35 0.32 0.32 0.27 0.22 0.20 0.19 0.20 0.21 0.24 0.27 0.32 0.35 0.36 0.36 0.36 0.34 0.33 0.31 0.29 0.26 0.24 0.22 0.22 0.23 0.23 0.23 0.23 0.25 0.25 0.26 0.27 0.27 0.26 0.27 0.28 0.29 0.29 0.30 0.31 0.33 0.35 0.36 0.37 0.37 0.36 0.34 0.32 0.35 0.37 0.34 0.37 0.41 0.43 0.42 0.41 0.42 0.43 0.47 0.47 0.49 0.52 0.59
0.41 0.42 0.43 0.45 0.46 0.45 0.44 0.45 0.44 0.45 0.46 0.46 0.47 0.47 0.46 0.46 0.46 0.45 0.44 0.38 0.35 0.35 0.33 0.33 0.33 0.31 0.26 0.22 0.19 0.18 0.19 0.19 0.19 0.25 0.30 0.33 0.34 0.34 0.34 0.32 0.30 0.28 0.27 0.25 0.23 0.24 0.24 0.24 0.23 0.23 0.23 0.24 0.25 0.25 0.24 0.23 0.21 0.20 0.21 0.21 0.22 0.24 0.26 0.28 0.30 0.32 0.33 0.34 0.34 0.33 0.35 0.37 0.37 0.38 0.39 0.41 0.41 0.42 0.44 0.43 0.44 0.45 0.47 0.53 0.57
0.41 0.42 0.42 0.43 0.44 0.44 0.44 0.44 0.43 0.43 0.42 0.43 0.44 0.45 0.46 0.47 0.46 0.46 0.44 0.42 0.40 0.37 0.35 0.37 0.36 0.33 0.30 0.25 0.20 0.17 0.18 0.17 0.17 0.17 0.23 0.29 0.31 0.30 0.31 0.30 0.29 0.28 0.27 0.25 0.23 0.25 0.26 0.24 0.23 0.23 0.23 0.23 0.24 0.25 0.25 0.24 0.21 0.18 0.17 0.18 0.18 0.19 0.21 0.25 0.26 0.28 0.29 0.30 0.31 0.31 0.32 0.33 0.35 0.35 0.37 0.38 0.39 0.40 0.42 0.43 0.42 0.42 0.40 0.38 0.38
0.39 0.40 0.41 0.42 0.43 0.44 0.45 0.44 0.44 0.43 0.42 0.42 0.43 0.44 0.46 0.48 0.49 0.48 0.44 0.44 0.43 0.41 0.40 0.40 0.40 0.36 0.31 0.27 0.22 0.18 0.17 0.17 0.16 0.15 0.16 0.21 0.26 0.27 0.28 0.28 0.27 0.25 0.25 0.24 0.22 0.24 0.26 0.27 0.25 0.24 0.23 0.23 0.24 0.24 0.24 0.24 0.20 0.17 0.16 0.16 0.16 0.16 0.17 0.20 0.21 0.21 0.22 0.22 0.23 0.23 0.23 0.25 0.26 0.28 0.30 0.33 0.34 0.36 0.36 0.34 0.33 0.36 0.34 0.31 0.33
0.38 0.40 0.41 0.43 0.44 0.45 0.45 0.44 0.43 0.43 0.41 0.41 0.43 0.44 0.47 0.49 0.49 0.49 0.45 0.44 0.43 0.43 0.43 0.42 0.41 0.38 0.32 0.28 0.25 0.20 0.18 0.17 0.16 0.15 0.15 0.16 0.18 0.21 0.25 0.24 0.23 0.23 0.22 0.20 0.22 0.23 0.25 0.26 0.27 0.25 0.24 0.24 0.24 0.23 0.22 0.22 0.18 0.16 0.15 0.14 0.13 0.13 0.14 0.17 0.17 0.17 0.19 0.19 0.19 0.18 0.17 0.17 0.18 0.19 0.21 0.23 0.27 0.28 0.28 0.26 0.32 0.35 0.33 0.34 0.31
0.38 0.39 0.41 0.44 0.45 0.46 0.45 0.44 0.44 0.42 0.40 0.41 0.44 0.44 0.44 0.46 0.48 0.49 0.46 0.45 0.45 0.45 0.43 0.41 0.40 0.37 0.35 0.31 0.28 0.23 0.20 0.19 0.17 0.16 0.15 0.15 0.16 0.17 0.19 0.20 0.19 0.19 0.18 0.18 0.21 0.22 0.23 0.25 0.26 0.26 0.25 0.24 0.22 0.21 0.21 0.20 0.17 0.16 0.14 0.13 0.11 0.11 0.13 0.15 0.15 0.14 0.15 0.15 0.15 0.15 0.14 0.15 0.16 0.16 0.17 0.17 0.19 0.21 0.23 0.25 0.28 0.28 0.28 0.32 0.33
0.39 0.40 0.42 0.44 0.45 0.46 0.46 0.45 0.44 0.42 0.41 0.42 0.44 0.45 0.45 0.45 0.45 0.45 0.45 0.45 0.45 0.45 0.44 0.42 0.39 0.37 0.34 0.30 0.27 0.25 0.22 0.20 0.19 0.17 0.16 0.15 0.16 0.16 0.17 0.15 0.15 0.16 0.17 0.20 0.20 0.22 0.23 0.23 0.24 0.25 0.25 0.23 0.22 0.21 0.20 0.19 0.17 0.16 0.15 0.13 0.11 0.10 0.14 0.14 0.15 0.14 0.14 0.14 0.14 0.14 0.14 0.14 0.14 0.14 0.14 0.15 0.16 0.17 0.18 0.20 0.22 0.25 0.25 0.27 0.30
0.41 0.42 0.43 0.43 0.44 0.45 0.46 0.45 0.42 0.43 0.43 0.42 0.44 0.45 0.45 0.43 0.40 0.40 0.41 0.43 0.44 0.44 0.42 0.42 0.39 0.35 0.33 0.30 0.27 0.26 0.23 0.21 0.20 0.18 0.17 0.17 0.17 0.16 0.16 0.17 0.17 0.17 0.18 0.20 0.21 0.22 0.23 0.24 0.24 0.25 0.24 0.23 0.21 0.20 0.19 0.18 0.18 0.17 0.15 0.14 0.13 0.13 0.14 0.12 0.13 0.14 0.13 0.13 0.13 0.13 0.13 0.13 0.13 0.13 0.13 0.13 0.14 0.15 0.15 0.17 0.18 0.21 0.23 0.24 0.25
0.42 0.42 0.42 0.43 0.44 0.45 0.44 0.44 0.43 0.42 0.43 0.43 0.42 0.42 0.45 0.46 0.45 0.43 0.41 0.40 0.39 0.40 0.41 0.40 0.37 0.34 0.33 0.30 0.28 0.26 0.25 0.22 0.20 0.18 0.17 0.17 0.17 0.17 0.17 0.17 0.18 0.18 0.19 0.21 0.22 0.23 0.24 0.25 0.25 0.25 0.24 0.22 0.21 0.20 0.19 0.18 0.17 0.17 0.16 0.15 0.13 0.12 0.13 0.14 0.13 0.13 0.13 0.12 0.12 0.11 0.11 0.11 0.11 0.12 0.12 0.13 0.13 0.13 0.13 0.14 0.16 0.17 0.19 0.23 0.26
0.42 0.42 0.41 0.41 0.43 0.44 0.45 0.44 0.44 0.43 0.42 0.41 0.40 0.41 0.44 0.46 0.46 0.46 0.45 0.41 0.38 0.37 0.38 0.37 0.35 0.33 0.31 0.28 0.27 0.25 0.24 0.22 0.20 0.18 0.17 0.16 0.17 0.17 0.17 0.17 0.18 0.20 0.21 0.21 0.22 0.23 0.25 0.26 0.26 0.25 0.24 0.22 0.20 0.19 0.18 0.17 0.16 0.16 0.16 0.15 0.13 0.12 0.13 0.13 0.13 0.12 0.12 0.12 0.11 0.10 0.10 0.11 0.11 0.11 0.12 0.12 0.13 0.13 0.13 0.13 0.14 0.15 0.16 0.18 0.23
0.42 0.40 0.40 0.40 0.41 0.42 0.43 0.44 0.44 0.44 0.43 0.43 0.42 0.42 0.43 0.43 0.43 0.43 0.44 0.42 0.38 0.36 0.36 0.35 0.33 0.30 0.27 0.26 0.26 0.25 0.24 0.22 0.21 0.19 0.17 0.16 0.16 0.17 0.17 0.17 0.19 0.21 0.24 0.23 0.24 0.24 0.24 0.25 0.25 0.24 0.23 0.21 0.20 0.19 0.18 0.17 0.16 0.15 0.15 0.15 0.13 0.12 0.13 0.13 0.12 0.12 0.12 0.11 0.11 0.10 0.10 0.11 0.11 0.11 0.12 0.13 0.14 0.14 0.14 0.14 0.14 0.14 0.14 0.15 0.18
0.41 0.39 0.38 0.39 0.40 0.41 0.40 0.41 0.43 0.43 0.43 0.43 0.43 0.43 0.42 0.41 0.39 0.39 0.39 0.38 0.35 0.34 0.34 0.34 0.31 0.28 0.26 0.26 0.25 0.24 0.23 0.21 0.20 0.18 0.17 0.17 0.16 0.17 0.18 0.19 0.20 0.23 0.23 0.24 0.25 0.25 0.25 0.25 0.24 0.23 0.22 0.20 0.19 0.18 0.17 0.17 0.16 0.15 0.15 0.15 0.14 0.13 0.13 0.12 0.12 0.12 0.11 0.11 0.11 0.11 0.11 0.11 0.12 0.13 0.14 0.14 0.14 0.14 0.13 0.14 0.14 0.14 0.15 0.15 0.16
0.39 0.39 0.38 0.39 0.40 0.40 0.39 0.40 0.41 0.42 0.44 0.45 0.43 0.43 0.41 0.40 0.37 0.36 0.36 0.34 0.33 0.32 0.31 0.31 0.30 0.29 0.27 0.27 0.26 0.25 0.24 0.22 0.19 0.18 0.17 0.17 0.17 0.17 0.19 0.20 0.21 0.23 0.24 0.24 0.25 0.25 0.25 0.23 0.22 0.21 0.20 0.20 0.19 0.18 0.17 0.17 0.16 0.16 0.16 0.16 0.14 0.13 0.13 0.13 0.12 0.12 0.12 0.12 0.12 0.11 0.11 0.12 0.12 0.13 0.14 0.14 0.13 0.12 0.12 0.12 0.12 0.12 0.13 0.12 0.12
0.39 0.38 0.37 0.39 0.40 0.38 0.38 0.39 0.40 0.43 0.45 0.46 0.44 0.42 0.41 0.39 0.37 0.36 0.34 0.33 0.32 0.31 0.30 0.30 0.29 0.28 0.27 0.27 0.26 0.26 0.24 0.21 0.18 0.17 0.17 0.17 0.17 0.18 0.20 0.20 0.22 0.23 0.24 0.24 0.24 0.24 0.24 0.22 0.21 0.20 0.19 0.19 0.18 0.18 0.18 0.17 0.16 0.16 0.15 0.15 0.15 0.14 0.14 0.14 0.13 0.13 0.13 0.12 0.12 0.11 0.12 0.12 0.13 0.12 0.12 0.12 0.12 0.12 0.13 0.13 0.12 0.12 0.13 0.13 0.12
0.38 0.37 0.37 0.38 0.38 0.38 0.38 0.39 0.40 0.41 0.43 0.43 0.42 0.41 0.41 0.40 0.37 0.34 0.32 0.32 0.30 0.29 0.29 0.29 0.28 0.27 0.26 0.26 0.26 0.24 0.21 0.19 0.19 0.18 0.17 0.17 0.18 0.19 0.20 0.21 0.22 0.23 0.23 0.23 0.24 0.24 0.24 0.22 0.21 0.20 0.19 0.18 0.17 0.17 0.17 0.17 0.17 0.16 0.15 0.15 0.15 0.15 0.15 0.15 0.15 0.14 0.14 0.13 0.13 0.13 0.12 0.12 0.11 0.11 0.12 0.11 0.11 0.12 0.13 0.12 0.12 0.12 0.13 0.12 0.11
0.38 0.37 0.38 0.39 0.39 0.39 0.39 0.40 0.40 0.41 0.41 0.42 0.43 0.43 0.41 0.39 0.38 0.35 0.33 0.34 0.32 0.30 0.29 0.28 0.27 0.28 0.27 0.25 0.22 0.21 0.21 0.20 0.20 0.20 0.19 0.20 0.21 0.20 0.20 0.21 0.22 0.22 0.23 0.24 0.24 0.24 0.23 0.21 0.19 0.19 0.18 0.17 0.17 0.16 0.16 0.16 0.16 0.16 0.16 0.15 0.16 0.15 0.14 0.14 0.13 0.13 0.13 0.13 0.12 0.12 0.12 0.12 0.11 0.12 0.11 0.11 0.11 0.11 0.12 0.12 0.13 0.12 0.12 0.12 0.11
0.38 0.38 0.38 0.38 0.39 0.39 0.39 0.40 0.39 0.40 0.41 0.40 0.41 0.42 0.42 0.41 0.38 0.32 0.31 0.33 0.33 0.32 0.30 0.28 0.29 0.29 0.27 0.25 0.25 0.23 0.22 0.22 0.23 0.22 0.21 0.22 0.23 0.23 0.23 0.23 0.23 0.23 0.23 0.25 0.25 0.22 0.20 0.19 0.19 0.18 0.18 0.17 0.16 0.16 0.16 0.15 0.15 0.15 0.15 0.16 0.16 0.15 0.15 0.14 0.14 0.14 0.13 0.12 0.12 0.12 0.12 0.12 0.11 0.11 0.11 0.10 0.10 0.11 0.12 0.12 0.11 0.12 0.11 0.11 0.11
0.38 0.38 0.38 0.38 0.39 0.38 0.38 0.39 0.39 0.39 0.41 0.41 0.41 0.40 0.39 0.38 0.35 0.33 0.33 0.33 0.33 0.32 0.31 0.31 0.32 0.31 0.29 0.28 0.29 0.28 0.26 0.25 0.24 0.24 0.24 0.24 0.25 0.25 0.24 0.24 0.23 0.23 0.24 0.23 0.22 0.21 0.20 0.19 0.19 0.19 0.18 0.17 0.17 0.16 0.16 0.15 0.15 0.15 0.15 0.15 0.16 0.16 0.15 0.15 0.15 0.14 0.13 0.12 0.12 0.12 0.12 0.11 0.11 0.11 0.10 0.10 0.10 0.10 0.11 0.11 0.11 0.11 0.11 0.11 0.11
0.37 0.37 0.38 0.38 0.39 0.39 0.38 0.38 0.40 0.40 0.40 0.41 0.41 0.41 0.39 0.35 0.32 0.33 0.34 0.34 0.34 0.33 0.33 0.34 0.35 0.35 0.34 0.32 0.31 0.30 0.29 0.28 0.26 0.26 0.26 0.27 0.28 0.27 0.26 0.26 0.25 0.25 0.24 0.24 0.21 0.20 0.20 0.20 0.19 0.19 0.19 0.17 0.17 0.17 0.17 0.16 0.15 0.15 0.15 0.15 0.15 0.16 0.15 0.15 0.15 0.13 0.12 0.12 0.12 0.12 0.11 0.11 0.11 0.11 0.11 0.10 0.11 0.10 0.10 0.10 0.10 0.11 0.11 0.12 0.12
0.39 0.38 0.38 0.38 0.38 0.39 0.39 0.38 0.39 0.40 0.40 0.40 0.40 0.41 0.39 0.36 0.32 0.32 0.34 0.36 0.36 0.36 0.35 0.36 0.37 0.38 0.37 0.36 0.36 0.33 0.31 0.30 0.29 0.29 0.28 0.29 0.29 0.29 0.29 0.28 0.27 0.26 0.25 0.22 0.21 0.20 0.21 0.21 0.20 0.20 0.19 0.18 0.18 0.17 0.17 0.16 0.16 0.16 0.16 0.15 0.15 0.16 0.16 0.16 0.15 0.13 0.13 0.13 0.12 0.12 0.11 0.11 0.11 0.11 0.11 0.11 0.10 0.10 0.10 0.10 0.11 0.11 0.12 0.11 0.11
0.43 0.40 0.39 0.38 0.38 0.39 0.40 0.39 0.39 0.40 0.41 0.41 0.41 0.41 0.40 0.38 0.36 0.36 0.35 0.35 0.35 0.37 0.38 0.38 0.38 0.39 0.40 0.40 0.39 0.37 0.36 0.34 0.32 0.31 0.30 0.31 0.31 0.32 0.31 0.30 0.29 0.27 0.25 0.22 0.21 0.20 0.21 0.21 0.20 0.20 0.19 0.19 0.18 0.18 0.17 0.17 0.16 0.16 0.16 0.16 0.17 0.17 0.16 0.16 0.14 0.13 0.13 0.12 0.12 0.12 0.11 0.11 0.11 0.10 0.10 0.10 0.11 0.11 0.11 0.11 0.11 0.11 0.11 0.11 0.11
0.49 0.45 0.42 0.40 0.39 0.39 0.40 0.40 0.40 0.40 0.41 0.41 0.41 0.42 0.42 0.41 0.40 0.39 0.38 0.37 0.36 0.36 0.37 0.39 0.40 0.41 0.42 0.42 0.42 0.41 0.39 0.37 0.36 0.35 0.33 0.33 0.33 0.33 0.32 0.30 0.27 0.25 0.24 0.23 0.22 0.21 0.21 0.21 0.20 0.20 0.20 0.19 0.19 0.18 0.18 0.17 0.16 0.16 0.16 0.16 0.17 0.16 0.16 0.15 0.14 0.13 0.13 0.12 0.12 0.11 0.11 0.11 0.11 0.11 0.10 0.10 0.10 0.10 0.10 0.11 0.11 0.11 0.11 0.12 0.12
0.53 0.50 0.47 0.44 0.43 0.43 0.42 0.41 0.40 0.40 0.40 0.40 0.42 0.43 0.43 0.42 0.42 0.42 0.42 0.42 0.40 0.40 0.41 0.42 0.42 0.44 0.44 0.45 0.44 0.44 0.43 0.41 0.40 0.38 0.37 0.36 0.35 0.34 0.30 0.27 0.26 0.25 0.23 0.23 0.22 0.22 0.22 0.22 0.22 0.21 0.21 0.20 0.20 0.19 0.18 0.17 0.17 0.17 0.17 0.17 0.16 0.16 0.15 0.15 0.14 0.13 0.13 0.12 0.12 0.11 0.11 0.11 0.11 0.11 0.11 0.11 0.11 0.11 0.11 0.11 0.11 0.12 0.12 0.12 0.13
0.56 0.54 0.51 0.48 0.47 0.46 0.45 0.44 0.43 0.43 0.42 0.42 0.43 0.43 0.44 0.45 0.46 0.46 0.46 0.45 0.43 0.43 0.44 0.44 0.44 0.44 0.45 0.46 0.47 0.47 0.46 0.44 0.43 0.41 0.40 0.39 0.38 0.35 0.32 0.30 0.27 0.25 0.24 0.23 0.23 0.22 0.22 0.22 0.22 0.22 0.21 0.20 0.20 0.19 0.18 0.17 0.17 0.17 0.17 0.17 0.17 0.16 0.15 0.15 0.14 0.13 0.13 0.12 0.11 0.11 0.11 0.10 0.11 0.11 0.11 0.10 0.11 0.11 0.11 0.12 0.12 0.12 0.13 0.13 0.13
0.59 0.57 0.55 0.53 0.50 0.48 0.47 0.45 0.44 0.45 0.45 0.46 0.45 0.45 0.46 0.47 0.48 0.48 0.48 0.47 0.46 0.46 0.46 0.46 0.45 0.44 0.44 0.45 0.49 0.49 0.48 0.47 0.46 0.44 0.43 0.41 0.40 0.36 0.34 0.31 0.29 0.26 0.24 0.24 0.23 0.23 0.22 0.23 0.23 0.22 0.21 0.21 0.20 0.20 0.19 0.18 0.18 0.17 0.17 0.17 0.17 0.16 0.16 0.15 0.14 0.14 0.13 0.12 0.11 0.11 0.11 0.11 0.11 0.11 0.11 0.11 0.11 0.11 0.11 0.12 0.12 0.12 0.12 0.13 0.13
0.61 0.59 0.57 0.56 0.53 0.51 0.48 0.47 0.45 0.45 0.46 0.47 0.48 0.48 0.48 0.49 0.50 0.50 0.50 0.49 0.48 0.48 0.48 0.48 0.47 0.47 0.47 0.49 0.50 0.52 0.49 0.47 0.45 0.43 0.42 0.41 0.40 0.39 0.36 0.33 0.30 0.27 0.26 0.24 0.24 0.23 0.23 0.23 0.23 0.22 0.22 0.21 0.20 0.20 0.19 0.18 0.18 0.18 0.17 0.17 0.16 0.16 0.15 0.15 0.14 0.13 0.12 0.11 0.11 0.11 0.11 0.11 0.11 0.11 0.11 0.11 0.11 0.11 0.12 0.12 0.12 0.12 0.12 0.12 0.13
0.62 0.61 0.59 0.58 0.56 0.53 0.51 0.48 0.47 0.46 0.46 0.47 0.48 0.50 0.51 0.52 0.52 0.52 0.52 0.51 0.50 0.50 0.51 0.50 0.50 0.50 0.51 0.53 0.52 0.52 0.49 0.48 0.46 0.44 0.43 0.42 0.41 0.40 0.38 0.34 0.31 0.28 0.26 0.25 0.24 0.24 0.24 0.23 0.23 0.22 0.22 0.21 0.21 0.20 0.20 0.19 0.18 0.18 0.17 0.17 0.16 0.15 0.15 0.15 0.14 0.12 0.11 0.11 0.11 0.11 0.11 0.11 0.11 0.11 0.11 0.11 0.12 0.12 0.12 0.12 0.12 0.13 0.13 0.13 0.14
0.64 0.63 0.61 0.60 0.58 0.56 0.53 0.50 0.48 0.47 0.48 0.49 0.51 0.52 0.53 0.54 0.55 0.56 0.55 0.55 0.54 0.54 0.54 0.54 0.54 0.54 0.54 0.54 0.55 0.55 0.52 0.50 0.48 0.46 0.45 0.44 0.43 0.41 0.39 0.36 0.33 0.30 0.28 0.26 0.25 0.25 0.24 0.24 0.23 0.23 0.22 0.22 0.21 0.21 0.20 0.19 0.19 0.18 0.17 0.17 0.16 0.16 0.15 0.15 0.14 0.12 0.11 0.11 0.11 0.11 0.11 0.11 0.11 0.11 0.10 0.11 0.12 0.12 0.12 0.13 0.13 0.13 0.13 0.14 0.14
0.67 0.64 0.62 0.61 0.60 0.58 0.54 0.50 0.49 0.49 0.50 0.51 0.52 0.53 0.54 0.55 0.57 0.57 0.57 0.57 0.57 0.57 0.57 0.57 0.57 0.57 0.56 0.56 0.57 0.57 0.55 0.52 0.50 0.48 0.47 0.46 0.45 0.43 0.40 0.37 0.34 0.31 0.29 0.27 0.25 0.25 0.25 0.24 0.24 0.23 0.23 0.22 0.21 0.21 0.20 0.19 0.19 0.18 0.18 0.17 0.16 0.16 0.15 0.14 0.13 0.12 0.11 0.11 0.11 0.11 0.11 0.11 0.11 0.11 0.11 0.12 0.12 0.12 0.12 0.12 0.13 0.13 0.13 0.13 0.14
0.71 0.67 0.63 0.62 0.61 0.59 0.56 0.53 0.51 0.50 0.50 0.51 0.52 0.54 0.56 0.58 0.58 0.57 0.57 0.58 0.58 0.58 0.58 0.57 0.58 0.58 0.57 0.58 0.58 0.59 0.56 0.53 0.51 0.49 0.48 0.47 0.46 0.44 0.41 0.38 0.34 0.32 0.30 0.28 0.27 0.26 0.26 0.25 0.24 0.24 0.23 0.23 0.22 0.21 0.20 0.20 0.20 0.19 0.18 0.17 0.17 0.16 0.14 0.14 0.13 0.12 0.11 0.11 0.11 0.11 0.11 0.11 0.11 0.11 0.11 0.12 0.12 0.12 0.12 0.13 0.13 0.13 0.13 0.14 0.14
0.72 0.70 0.68 0.64 0.62 0.61 0.59 0.56 0.53 0.51 0.51 0.52 0.54 0.55 0.57 0.59 0.59 0.58 0.58 0.58 0.58 0.58 0.58 0.58 0.58 0.58 0.58 0.58 0.59 0.59 0.57 0.54 0.51 0.50 0.49 0.48 0.46 0.44 0.42 0.38 0.35 0.32 0.30 0.29 0.27 0.27 0.27 0.25 0.25 0.25 0.25 0.24 0.23 0.23 0.22 0.21 0.21 0.19 0.18 0.18 0.17 0.16 0.14 0.13 0.12 0.12 0.12 0.11 0.11 0.11 0.11 0.11 0.11 0.11 0.11 0.12 0.12 0.12 0.12 0.13 0.13 0.13 0.13 0.14 0.13
0.72 0.70 0.68 0.65 0.63 0.61 0.60 0.58 0.56 0.54 0.53 0.54 0.55 0.56 0.57 0.58 0.59 0.59 0.59 0.59 0.60 0.60 0.60 0.59 0.60 0.59 0.59 0.58 0.59 0.60 0.58 0.55 0.52 0.51 0.50 0.48 0.46 0.44 0.42 0.38 0.35 0.32 0.31 0.29 0.28 0.28 0.27 0.26 0.25 0.25 0.25 0.24 0.24 0.23 0.23 0.22 0.22 0.21 0.20 0.19 0.17 0.15 0.14 0.13 0.13 0.13 0.13 0.12 0.11 0.11 0.11 0.11 0.11 0.11 0.12 0.12 0.13 0.13 0.13 0.13 0.13 0.13 0.14 0.14 0.12
0.74 0.72 0.69 0.67 0.64 0.62 0.61 0.59 0.58 0.57 0.56 0.55 0.55 0.56 0.58 0.59 0.60 0.60 0.60 0.61 0.62 0.62 0.62 0.62 0.61 0.61 0.60 0.59 0.60 0.60 0.59 0.55 0.53 0.52 0.51 0.49 0.46 0.44 0.42 0.38 0.35 0.33 0.31 0.30 0.29 0.28 0.27 0.27 0.26 0.26 0.25 0.25 0.25 0.24 0.24 0.23 0.22 0.21 0.20 0.19 0.18 0.16 0.16 0.15 0.15 0.14 0.13 0.12 0.12 0.11 0.11 0.11 0.11 0.12 0.12 0.13 0.13 0.13 0.13 0.13 0.14 0.14 0.14 0.13 0.12
0.78 0.76 0.73 0.70 0.67 0.64 0.62 0.60 0.59 0.58 0.58 0.58 0.58 0.58 0.59 0.59 0.60 0.61 0.62 0.62 0.63 0.63 0.63 0.63 0.62 0.61 0.61 0.60 0.59 0.60 0.59 0.57 0.54 0.53 0.51 0.49 0.46 0.44 0.42 0.38 0.35 0.33 0.32 0.31 0.29 0.29 0.28 0.28 0.27 0.27 0.26 0.26 0.26 0.25 0.25 0.24 0.23 0.21 0.20 0.19 0.18 0.17 0.16 0.16 0.15 0.14 0.13 0.13 0.13 0.12 0.12 0.12 0.12 0.12 0.13 0.13 0.13 0.13 0.13 0.14 0.14 0.14 0.14 0.13 0.12
0.76 0.76 0.75 0.74 0.70 0.67 0.64 0.61 0.59 0.59 0.59 0.60 0.60 0.60 0.61 0.61 0.62 0.62 0.63 0.63 0.63 0.64 0.64 0.64 0.63 0.62 0.61 0.60 0.59 0.59 0.60 0.58 0.56 0.54 0.52 0.49 0.47 0.45 0.42 0.39 0.36 0.34 0.33 0.32 0.31 0.30 0.29 0.29 0.28 0.28 0.28 0.27 0.27 0.26 0.26 0.25 0.24 0.22 0.21 0.20 0.18 0.17 0.17 0.16 0.16 0.15 0.14 0.13 0.13 0.13 0.12 0.12 0.12 0.12 0.13 0.13 0.13 0.13 0.13 0.13 0.14 0.14 0.13 0.13 0.13
0.75 0.73 0.74 0.73 0.72 0.69 0.65 0.62 0.61 0.60 0.59 0.60 0.61 0.62 0.63 0.63 0.64 0.65 0.65 0.65 0.65 0.65 0.65 0.65 0.64 0.63 0.62 0.60 0.60 0.60 0.61 0.60 0.57 0.55 0.53 0.50 0.48 0.46 0.44 0.40 0.37 0.35 0.34 0.33 0.32 0.31 0.30 0.30 0.29 0.29 0.29 0.28 0.28 0.27 0.27 0.26 0.24 0.23 0.21 0.20 0.18 0.17 0.17 0.17 0.16 0.15 0.14 0.13 0.13 0.13 0.13 0.13 0.13 0.13 0.13 0.13 0.14 0.14 0.14 0.15 0.14 0.13 0.13 0.13 0.13
0.74 0.73 0.72 0.72 0.73 0.71 0.69 0.66 0.64 0.62 0.62 0.62 0.62 0.63 0.64 0.64 0.65 0.65 0.66 0.66 0.65 0.65 0.64 0.64 0.64 0.64 0.63 0.61 0.60 0.61 0.62 0.61 0.58 0.55 0.53 0.51 0.50 0.48 0.45 0.42 0.39 0.36 0.35 0.34 0.33 0.32 0.31 0.31 0.30 0.30 0.30 0.29 0.29 0.28 0.28 0.27 0.25 0.24 0.22 0.20 0.19 0.18 0.17 0.17 0.16 0.15 0.14 0.13 0.12 0.12 0.13 0.13 0.13 0.13 0.14 0.14 0.14 0.14 0.14 0.14 0.14 0.13 0.13 0.13 0.13
0.73 0.72 0.72 0.72 0.72 0.72 0.70 0.68 0.66 0.66 0.65 0.65 0.64 0.64 0.64 0.65 0.65 0.66 0.66 0.65 0.65 0.65 0.65 0.65 0.65 0.64 0.64 0.63 0.62 0.62 0.62 0.63 0.60 0.56 0.54 0.52 0.51 0.49 0.47 0.44 0.41 0.39 0.37 0.35 0.34 0.33 0.32 0.31 0.31 0.30 0.30 0.30 0.29 0.29 0.28 0.27 0.26 0.25 0.23 0.21 0.19 0.18 0.18 0.17 0.16 0.15 0.14 0.13 0.12 0.12 0.12 0.13 0.13 0.13 0.13 0.14 0.14 0.14 0.14 0.14 0.13 0.13 0.13 0.13 0.13
Wind_Speed
8 9 10 10 9 8 8 7 7 7 6 6 6 6 6 6 6 6 6 7 7 7 8 8 8 9 9 10 10 9 9 9 8 8 8 8 8 8 8 8 8 8 9 10 11 11 12 12 13 13 13 14 14 15 15 16 16 16 16 17 17 17 18 18 19 19 19 19 18 18 18 19 21 22 24 24 25 25 25 25 24 24 24 24 24
8 8 9 10 9 8 7 7 6 6 5 5 5 5 5 5 5 5 5 6 6 7 7 7 8 8 8 9 9 9 9 9 8 8 8 8 8 8 8 7 6 6 7 8 10 11 11 12 13 13 14 14 14 15 15 15 15 15 16 16 17 17 17 17 17 18 18 19 18 17 17 18 18 20 21 22 23 23 24 24 23 23 24 24 24
7 8 8 9 8 7 6 6 5 5 4 4 4 4 4 4 4 5 4 5 6 6 6 7 7 7 8 8 8 9 9 9 8 8 8 8 8 7 7 6 5 6 6 7 9 11 11 12 12 13 14 14 15 15 15 15 15 16 16 16 16 17 17 17 17 17 18 18 18 18 18 18 18 18 19 20 21 21 22 22 22 22 23 24 24
7 7 7 8 7 6 6 5 5 5 4 4 4 3 3 3 4 4 4 5 5 6 6 7 7 7 7 8 8 8 8 8 8 7 7 7 7 7 6 6 6 6 6 7 8 9 10 11 12 13 14 14 14 15 15 15 15 16 16 17 16 17 17 17 18 18 18 18 19 19 19 19 19 18 18 18 19 19 20 21 21 22 22 23 24
6 7 7 7 7 5 5 5 5 4 4 4 3 3 3 3 3 3 4 4 5 5 6 6 6 7 7 7 7 8 8 8 7 6 6 6 6 5 5 5 6 6 6 7 7 8 9 10 11 12 13 13 14 14 15 15 16 16 16 17 18 18 18 18 18 18 18 18 19 19 19 19 19 19 19 19 19 19 19 20 21 22 22 23 23
7 6 6 6 6 5 5 5 5 4 4 3 3 3 3 2 2 3 3 4 5 5 5 5 5 6 6 6 6 6 6 6 6 5 5 5 5 5 5 5 5 6 7 7 7 7 8 8 9 10 11 12 13 14 14 15 16 17 17 17 18 18 19 19 19 19 19 19 19 19 19 19 19 19 20 20 20 19 19 20 20 21 22 23 23
7 7 6 6 5 5 5 5 4 4 3 3 3 2 2 2 2 2 3 4 4 5 5 5 5 5 5 5 5 5 5 5 4 4 4 4 4 4 4 4 5 6 6 7 7 7 7 7 8 8 9 10 11 12 13 14 15 16 17 18 18 18 19 19 20 20 20 20 20 20 20 20 20 20 20 20 20 20 20 21 21 20 21 21 22
7 7 6 6 6 6 5 5 4 3 3 3 2 2 2 2 2 2 2 3 4 5 5 5 5 5 5 5 5 5 4 4 4 4 4 4 4 4 4 5 5 6 6 7 7 7 7 8 8 8 8 8 9 10 11 12 13 14 16 17 18 18 19 19 20 20 21 21 21 21 22 22 22 22 22 21 21 21 21 22 22 22 21 21 22
7 7 7 6 6 6 5 4 4 3 3 2 2 2 2 2 2 2 2 3 4 5 5 5 6 6 6 6 5 5 4 4 4 4 4 4 4 4 4 5 5 6 7 7 8 8 8 8 8 8 8 9 9 9 10 11 11 12 14 15 16 17 17 18 19 20 21 21 22 22 23 23 23 23 23 22 23 23 23 23 23 23 23 23 22
7 7 7 7 6 6 5 4 4 4 3 3 2 2 2 2 2 1 2 3 4 4 5 5 5 6 6 6 5 5 5 5 5 5 5 5 4 4 5 5 6 7 7 8 8 8 9 9 9 9 9 9 10 10 10 11 11 12 12 13 14 15 16 17 18 19 20 21 22 23 23 24 24 24 24 24 24 24 25 25 25 24 24 24 23
7 7 7 7 6 6 5 5 4 4 3 3 3 2 2 1 1 1 2 3 3 3 4 4 5 5 6 6 6 6 5 5 6 6 6 6 5 5 5 6 6 7 7 8 8 8 9 9 9 10 10 10 11 11 11 11 12 12 12 13 13 14 15 16 17 18 19 20 21 22 23 24 25 25 26 26 26 26 26 26 26 25 25 24 24
8 7 7 7 6 6 6 5 5 4 4 3 3 2 2 1 1 1 2 3 2 3 3 4 5 5 5 6 6 6 6 6 6 6 6 6 5 5 6 6 7 7 8 8 9 9 9 10 10 10 11 12 11 11 12 12 12 12 13 13 13 14 14 15 16 17 18 19 20 20 21 23 24 25 26 27 27 27 27 27 27 26 26 25 25
8 8 7 7 7 6 6 6 5 4 4 3 3 3 2 2 2 2 2 2 2 2 3 4 5 5 6 6 7 7 7 7 7 6 6 6 6 6 6 7 7 8 8 9 9 9 9 10 10 11 11 12 12 12 12 13 13 13 13 14 14 14 14 14 15 16 17 18 19 20 21 22 23 24 25 26 27 28 28 29 28 28 28 28 27
8 7 7 7 7 7 6 6 5 5 4 3 3 3 3 2 2 2 2 2 2 2 3 3 4 5 6 6 7 7 7 7 7 6 6 6 6 6 6 7 7 8 9 9 9 9 10 10 11 12 12 13 13 13 14 14 14 14 14 14 15 15 15 15 15 16 16 17 18 19 20 21 22 23 24 25 26 27 28 29 30 30 30 30 29
8 7 7 7 7 7 7 6 6 5 4 4 3 3 3 3 2 1 1 2 1 2 2 3 4 5 5 6 6 6 7 7 7 6 6 6 6 6 6 6 7 8 9 9 9 10 10 11 11 12 13 14 14 15 15 15 15 15 16 16 16 16 16 16 16 16 16 17 17 18 19 21 22 23 24 24 25 26 27 28 29 30 30 30 30
8 8 8 8 7 7 7 6 6 5 5 4 4 4 3 3 2 1 1 1 1 1 2 2 3 4 5 5 6 6 7 7 7 6 6 6 6 6 6 6 7 8 9 9 10 10 11 11 12 13 14 14 15 16 16 16 16 17 17 17 17 17 17 18 18 18 18 18 18 18 19 20 22 23 24 25 25 26 26 27 28 29 30 30 30
8 8 8 8 8 7 7 7 6 5 5 5 4 4 4 3 3 2 1 0 0 1 1 1 2 3 4 5 6 6 6 7 7 6 6 6 6 6 6 7 7 8 9 10 10 11 11 12 13 14 14 15 16 17 17 17 17 17 18 18 18 18 18 18 19 19 19 19 19 20 20 21 22 23 24 25 25 26 26 27 27 28 28 29 30
8 8 8 8 8 8 7 7 6 6 5 5 5 4 4 3 3 2 2 1 1 0 0 1 2 3 4 5 6 6 6 6 7 7 7 7 6 6 7 7 8 9 9 10 11 11 12 13 14 15 15 15 16 17 17 17 17 18 18 18 19 19 19 19 20 20 20 20 21 21 21 22 22 23 24 24 25 25 26 26 27 28 28 28 29
8 8 9 9 8 8 8 7 6 6 6 5 5 4 3 3 3 2 2 2 1 1 1 1 2 3 4 5 6 6 6 6 7 7 7 7 7 7 8 8 9 9 10 11 11 12 13 14 15 15 15 15 16 16 17 17 17 18 18 18 19 19 20 20 20 21 21 21 22 22 23 23 24 24 24 25 25 25 25 26 27 28 29 29 30
8 8 8 8 8 8 8 7 7 6 6 6 5 4 4 3 3 3 2 2 2 1 1 2 3 4 4 5 5 6 6 7 7 8 8 8 8 8 9 9 10 10 10 11 12 12 13 14 14 15 15 16 16 17 17 17 17 17 18 18 19 19 20 20 21 21 22 22 23 23 24 24 25 25 25 25 26 26 26 26 27 27 28 29 30
8 8 8 8 8 8 8 7 7 6 6 6 5 4 4 4 3 3 3 2 2 2 2 3 3 3 4 4 5 6 6 7 8 8 9 9 9 10 10 10 10 11 11 12 12 13 13 14 14 15 15 16 16 17 17 17 17 18 18 18 19 20 20 21 21 22 23 23 24 24 25 25 26 26 26 26 27 27 27 27 27 28 28 28 29
8 8 9 8 9 8 8 7 7 6 6 5 5 5 5 4 4 3 3 2 2 3 3 3 3 4 4 5 5 6 6 7 8 9 9 10 10 11 11 11 11 11 11 12 12 13 13 14 14 15 16 16 16 17 17 18 18 18 18 19 20 21 21 21 22 23 23 24 25 25 26 26 27 27 27 27 27 28 28 28 28 28 28 28 29
9 9 9 9 9 8 8 7 7 6 6 6 6 6 5 5 4 4 4 4 3 3 4 4 4 4 5 5 6 7 7 8 9 10 10 11 11 12 12 12 12 12 12 12 13 13 13 13 14 15 15 16 16 17 18 18 18 19 19 20 21 22 22 22 23 24 24 25 26 26 27 27 28 28 28 28 28 28 28 28 29 29 29 29 29
9 9 9 9 9 9 8 8 7 7 7 6 6 6 6 5 5 5 5 5 4 4 4 5 5 5 5 6 6 7 8 9 10 10 11 11 12 12 13 13 12 12 12 12 13 13 13 14 14 15 15 16 17 18 18 18 19 20 20 21 22 23 23 24 24 25 25 26 26 27 28 28 28 28 28 28 28 28 28 29 29 29 29 29 30
9 10 9 9 9 9 9 8 8 7 7 7 7 7 7 6 5 5 5 5 5 5 5 5 6 6 6 7 7 8 9 10 11 11 12 12 12 13 13 13 13 13 13 13 13 13 13 14 14 15 16 17 17 18 18 19 20 21 21 22 23 23 24 24 25 26 26 26 27 28 28 29 29 29 28 28 28 28 28 28 29 29 29 29 29
10 10 10 10 9 9 9 9 9 8 8 8 8 7 7 7 6 6 6 6 6 6 6 6 6 7 7 8 8 9 10 11 11 12 12 13 13 13 13 13 13 13 13 13 13 13 14 14 14 15 16 17 18 18 19 20 20 21 22 22 23 24 25 25 26 26 27 27 28 28 29 29 29 29 29 28 28 28 28 28 29 29 29 29 30
11 12 11 11 10 10 10 10 9 9 9 9 8 8 8 7 7 7 7 7 7 7 7 7 7 7 8 8 9 10 11 11 12 12 13 13 13 13 13 13 13 13 13 13 13 13 14 14 15 15 16 17 18 19 19 20 21 22 22 23 24 25 25 26 26 27 27 28 28 29 29 29 29 29 28 28 28 28 28 29 29 29 30 30 30
13 13 13 12 12 11 11 11 11 10 10 10 10 9 8 8 8 8 8 8 8 8 8 8 8 8 9 9 10 11 11 12 12 13 13 13 13 13 13 13 13 13 13 13 13 14 14 14 15 16 17 18 19 19 20 20 21 22 23 24 24 25 26 27 27 28 28 29 29 29 30 30 29 29 28 28 28 29 29 29 29 29 29 29 29
14 14 14 13 13 13 12 12 12 11 11 11 10 10 9 9 9 9 9 9 9 9 9 9 9 9 10 10 11 11 12 12 13 13 13 13 13 13 13 13 13 13 13 14 14 14 14 15 15 16 17 18 19 20 20 21 22 22 23 24 25 26 27 27 28 28 29 29 29 30 30 30 29 29 29 28 29 29 29 29 29 29 29 29 29
15 15 15 15 14 14 14 13 13 13 13 12 12 11 10 10 10 10 10 10 9 9 9 10 10 10 10 11 11 12 12 13 13 13 14 14 14 14 14 14 14 14 14 14 14 14 15 15 16 16 17 18 19 20 20 21 22 22 23 24 25 26 27 28 28 29 29 29 30 30 30 30 30 29 29 29 29 29 29 29 29 28 28 28 28
17 17 17 16 16 15 15 15 15 14 14 14 13 12 11 11 10 10 10 10 10 10 10 10 10 10 11 12 12 12 13 13 13 14 14 14 14 14 14 14 14 14 14 14 14 15 15 15 16 17 18 18 19 20 21 21 22 22 23 24 25 26 27 28 29 29 29 29 30 30 30 30 30 29 29 28 28 29 29 29 28 28 27 27 27
18 18 18 18 18 17 17 17 16 16 15 15 15 14 13 12 12 12 12 11 11 11 11 11 11 11 12 12 13 13 14 14 14 14 15 15 15 15 15 15 15 15 15 14 15 15 15 16 16 17 18 19 19 20 21 21 22 23 23 24 25 27 28 28 29 29 29 30 30 30 30 30 30 29 28 28 28 28 28 28 28 27 26 26 26
19 20 19 19 19 19 18 18 18 18 17 17 17 16 15 15 14 14 13 13 13 13 13 12 12 12 12 13 13 14 14 14 14 15 15 15 15 16 16 16 15 15 15 15 15 15 16 16 17 18 19 19 20 20 21 21 22 23 24 24 25 26 28 28 29 29 30 30 30 30 30 30 30 29 28 28 28 27 28 28 27 27 26 26 25
20 21 21 21 21 20 20 20 19 19 19 19 18 18 17 17 16 16 15 15 15 15 15 14 14 14 14 14 14 14 14 15 15 15 15 15 16 16 16 15 15 15 15 16 16 16 16 17 17 18 19 20 20 21 21 22 22 23 24 25 25 26 27 28 29 29 30 30 30 30 30 30 30 29 28 28 27 27 27 27 27 26 26 25 25
20 21 22 22 22 22 22 21 21 21 20 20 20 20 19 18 18 17 17 17 17 16 16 16 16 16 16 15 15 15 15 15 15 15 15 16 16 16 16 16 15 16 16 16 16 17 17 17 18 18 19 20 21 21 22 22 22 23 24 25 26 27 28 28 29 30 30 30 30 30 30 30 30 29 28 27 27 26 26 27 27 26 26 26 25
21 21 21 22 23 23 23 22 22 22 22 21 21 21 20 20 19 19 18 18 18 18 17 17 17 17 17 17 16 16 16 16 16 16 16 16 16 16 16 16 16 16 17 17 17 17 17 18 18 19 20 20 21 22 22 22 23 23 24 25 25 26 27 28 29 30 30 30 30 30 29 29 29 29 28 27 26 26 26 26 26 26 26 26 25
23 22 22 23 23 23 23 23 23 23 22 22 22 21 21 20 20 20 19 19 19 18 18 18 18 18 18 18 18 17 17 17 17 17 17 17 17 17 17 17 17 17 17 17 17 17 18 18 19 19 20 21 21 22 22 23 23 23 24 25 25 26 27 28 29 30 30 30 30 29 29 29 29 29 28 27 26 26 25 25 26 26 26 26 25
24 24 23 23 23 24 24 24 24 24 23 23 22 22 22 21 21 21 20 20 20 19 19 19 19 19 19 19 18 18 18 18 18 18 18 17 17 17 18 18 18 18 18 18 18 18 18 18 19 20 21 21 21 22 22 23 23 23 24 25 25 26 27 28 29 30 30 30 30 29 29 29 29 28 28 27 26 25 25 25 25 26 26 26 25
25 25 25 24 24 24 24 25 24 24 24 23 23 23 22 22 22 22 21 21 21 20 20 20 20 20 20 19 19 19 19 19 19 19 18 18 18 18 18 18 18 18 18 18 18 18 19 19 19 20 21 21 21 22 22 23 23 23 24 25 25 26 27 27 29 29 30 30 30 29 29 28 28 28 28 27 26 25 25 25 25 26 26 26 25
26 26 25 25 24 24 25 25 25 25 25 24 24 23 23 23 23 22 22 22 21 21 21 21 21 20 20 20 20 20 20 20 19 19 19 19 19 19 19 19 19 19 19 19 19 19 19 19 20 20 21 21 22 22 23 23 23 24 24 25 25 26 26 27 28 29 29 30 29 29 28 28 28 28 27 27 26 26 25 25 25 25 25 25 25
27 26 26 26 25 25 25 25 25 25 25 25 24 24 24 24 24 23 23 22 22 22 22 22 22 21 21 21 21 20 21 20 20 20 20 20 20 20 20 19 19 19 19 19 19 19 19 19 20 21 21 21 22 22 23 23 23 24 24 25 25 26 26 27 28 29 29 29 29 29 28 28 28 27 27 27 27 26 25 25 25 25 25 25 25
28 27 27 26 26 26 25 26 26 26 26 26 25 25 25 25 25 24 23 23 23 22 22 22 22 22 22 22 21 21 21 21 21 21 21 20 20 20 20 20 20 20 19 19 19 19 19 20 20 21 21 22 22 23 23 23 24 24 24 24 25 25 26 27 27 28 29 29 29 29 28 28 27 27 27 27 27 26 26 25 25 25 25 25 25
29 28 27 27 27 27 26 27 27 27 27 27 27 26 26 26 25 25 24 24 24 24 23 23 23 22 22 22 22 21 21 21 21 21 21 21 21 20 20 20 20 20 19 19 19 19 19 20 20 21 21 22 22 22 23 23 23 24 24 24 25 25 26 26 27 28 28 29 29 29 28 28 27 27 27 27 27 27 26 26 25 25 25 25 25
29 29 28 28 28 28 27 27 27 28 28 28 28 27 27 27 26 26 25 25 25 25 24 24 23 23 23 22 22 22 22 22 22 22 22 22 21 21 21 20 20 20 20 19 19 19 20 20 21 21 21 21 22 22 23 23 23 23 24 24 25 25 26 26 27 28 28 29 29 29 28 28 27 27 27 27 27 27 27 26 26 25 25 25 25
30 29 29 28 28 28 28 28 28 28 29 28 28 28 28 28 27 27 26 26 26 26 25 25 24 24 24 23 23 23 23 23 23 23 22 22 22 21 21 21 21 20 20 20 19 19 20 20 21 21 22 22 22 22 23 23 23 23 23 24 25 25 25 26 27 27 28 28 28 28 28 28 27 27 27 27 27 27 27 26 26 26 25 25 26
30 29 29 29 29 29 29 29 29 29 29 29 29 28 28 28 28 28 27 27 27 27 26 26 25 25 25 25 24 24 24 24 24 23 23 22 22 21 21 21 21 20 20 20 20 20 20 20 21 21 22 22 22 22 23 23 23 23 23 24 24 25 25 26 27 27 28 28 28 28 28 28 28 27 27 27 28 28 27 27 26 26 26 26 27
30 29 29 30 30 30 29 29 29 29 29 29 29 29 29 29 29 29 28 28 28 28 28 27 27 27 26 25 25 25 25 25 24 23 23 23 22 21 21 21 21 21 21 20 20 20 20 21 21 21 22 22 22 23 23 23 23 23 23 23 24 24 25 26 27 27 28 28 28 28 28 28 28 27 27 27 28 28 28 27 27 26 26 26 27
30 30 29 29 30 30 29 29 29 29 29 29 29 29 29 29 29 29 29 29 29 29 29 29 28 27 26 26 25 25 25 25 25 24 24 23 22 21 21 21 21 21 21 21 21 21 20 21 21 21 22 22 23 23 23 23 23 23 23 23 24 25 26 26 27 27 28 28 28 29 29 29 28 28 27 27 28 28 28 28 27 27 27 27 27
30 30 29 29 29 29 29 29 29 29 29 29 29 29 29 30 30 30 30 30 30 30 29 29 29 28 27 26 26 26 26 26 26 25 24 23 22 22 22 22 22 22 22 21 21 21 21 21 21 22 22 23 23 23 23 23 23 23 23 24 24 25 26 26 27 28 28 28 29 29 29 29 28 28 28 28 28 28 28 28 27 27 27 27 27
30 30 30 29 29 29 29 29 29 29 29 29 29 29 30 30 30 30 30 30 30 30 30 29 29 28 28 27 27 27 26 26 26 26 25 24 23 22 22 22 22 22 22 22 21 21 21 21 22 22 23 23 23 23 23 23 23 24 24 24 24 25 26 27 27 28 28 29 29 29 29 29 29 29 28 28 28 29 29 29 28 28 27 27 28
31 30 30 30 30 29 29 29 29 29 29 30 30 30 30 30 30 30 30 30 30 30 30 30 29 29 29 28 28 28 27 27 27 26 25 24 23 23 23 23 23 23 23 22 22 22 22 22 22 23 23 23 24 24 24 24 24 24 24 24 25 25 26 27 28 28 29 29 29 30 30 29 29 29 29 29 29 29 29 29 29 28 28 28 28
Wind_Direction
306 313 319 323 320 315 313 314 315 312 304 296 289 285 284 281 279 277 276 278 278 280 284 285 287 289 292 297 302 304 305 305 305 304 306 309 310 307 298 288 279 273 269 265 263 263 266 267 267 269 270 270 268 268 268 269 269 269 268 267 268 268 268 267 266 266 269 272 275 276 276 273 270 268 267 267 265 264 264 264 265 264 262 263 262
305 311 317 323 321 316 317 318 321 321 315 307 299 291 286 281 279 279 279 283 286 287 289 289 290 291 293 297 300 302 303 303 303 304 304 306 309 311 307 300 292 284 279 276 271 267 268 270 269 270 271 272 271 271 272 272 271 271 272 272 274 273 272 270 270 270 271 272 275 277 278 278 276 274 272 270 268 266 264 263 264 263 262 263 262
303 309 317 323 321 318 322 325 329 331 327 322 314 302 290 284 281 281 282 286 290 294 295 294 295 296 296 298 299 300 300 300 301 302 303 305 308 310 310 309 307 300 292 287 280 275 275 276 275 274 274 274 275 275 276 276 274 273 274 276 277 276 275 274 273 275 275 273 274 278 280 280 280 279 277 274 272 270 266 263 263 263 263 263 263
297 306 315 323 322 320 325 329 334 336 335 333 330 318 305 297 291 289 289 291 295 299 301 300 298 298 299 301 302 303 303 303 303 302 304 306 308 309 311 314 315 312 304 297 290 285 284 284 284 281 279 278 278 278 278 278 278 276 276 276 277 277 277 278 277 277 277 276 275 277 279 280 279 280 280 279 277 274 270 266 264 264 264 264 264
288 297 309 320 321 319 324 331 335 336 336 335 335 331 320 310 304 300 300 305 308 308 308 307 305 304 305 306 308 308 308 308 307 306 306 308 309 311 315 321 324 324 320 314 307 300 294 292 290 288 285 282 282 281 281 280 279 279 278 278 277 277 278 280 280 280 279 279 277 277 278 278 278 278 280 281 281 278 275 271 267 266 266 267 266
282 287 297 308 313 313 320 328 333 337 339 336 334 335 332 321 311 311 314 318 322 324 324 321 317 316 315 314 314 313 311 310 310 309 309 310 313 318 323 329 332 332 331 328 326 321 314 307 301 297 292 288 287 286 285 284 283 282 282 282 281 279 279 280 281 281 281 280 279 279 279 279 279 279 280 281 281 280 279 277 274 271 269 269 268
280 281 285 293 298 302 310 318 325 334 343 345 340 340 347 345 329 323 326 331 339 348 349 343 339 337 334 330 328 325 321 319 319 319 319 320 323 328 333 337 339 338 338 339 340 340 339 333 326 318 310 303 298 295 292 291 289 287 286 285 284 284 282 281 281 281 280 280 279 278 278 279 280 280 281 282 280 278 279 279 278 278 277 274 272
278 276 276 281 284 290 297 303 312 323 333 342 346 345 355 6 4 347 339 345 358 6 6 3 2 1 359 355 351 345 341 340 338 336 337 338 340 344 349 351 353 353 352 353 355 355 354 352 347 342 335 328 320 313 307 302 299 296 294 291 290 288 286 284 282 281 280 280 279 278 277 278 280 280 281 282 281 280 280 279 278 278 279 278 275
275 271 271 273 277 281 282 285 293 299 305 319 330 330 339 354 1 350 340 349 5 12 11 10 13 16 16 14 11 6 5 5 3 359 356 356 357 0 5 8 9 8 7 6 6 6 5 2 360 356 351 346 339 331 325 319 313 309 306 303 300 296 293 290 287 285 283 282 281 280 278 278 279 280 280 280 280 279 280 279 277 276 277 277 276
271 267 267 267 269 271 270 273 280 283 286 293 301 305 311 330 350 352 345 352 4 12 15 17 20 23 24 23 23 23 24 22 20 18 17 16 16 15 17 19 19 17 16 14 12 12 11 8 6 4 360 354 348 342 337 331 326 321 317 313 310 306 302 298 295 291 288 286 284 283 281 280 280 280 279 279 278 277 278 278 277 277 277 276 275
270 264 263 261 260 261 262 264 269 272 272 274 282 287 288 307 348 3 353 355 5 12 16 21 24 25 26 27 28 29 30 27 25 25 24 23 22 21 21 20 20 19 17 16 15 12 11 8 5 4 1 357 352 347 344 340 335 331 327 323 319 314 309 305 301 297 294 291 289 287 285 283 283 282 280 280 279 278 277 277 276 276 276 275 273
267 262 260 256 253 254 255 255 258 262 262 262 268 269 268 287 324 349 348 350 0 12 18 23 26 26 27 30 31 31 30 26 26 27 26 25 25 23 20 18 17 18 17 16 13 10 8 6 3 0 358 357 353 348 346 343 339 337 334 330 327 323 318 312 307 302 299 296 293 292 290 288 286 285 284 282 281 280 278 276 275 275 274 272 271
263 259 256 250 247 248 249 248 250 254 255 255 258 257 260 277 300 327 338 341 353 14 25 27 29 30 32 33 33 32 29 25 25 26 23 22 22 19 15 14 14 15 14 11 9 7 5 2 0 357 355 353 351 347 344 341 339 337 336 333 332 330 326 322 316 310 305 301 298 296 294 291 290 290 288 285 282 281 279 277 276 275 273 271 270
259 255 250 244 244 245 244 242 243 247 251 252 253 256 261 272 290 318 334 340 357 26 34 35 36 35 35 34 31 30 28 23 21 20 17 15 14 11 9 9 10 11 9 7 5 4 1 358 356 354 352 350 348 345 342 340 337 336 334 333 332 330 328 326 322 318 313 309 305 302 298 295 293 292 292 289 286 283 280 277 276 275 273 271 269
253 248 243 241 243 243 240 238 239 242 247 248 250 255 258 261 277 307 334 352 13 40 47 44 41 37 33 30 26 24 22 18 16 15 11 9 8 5 3 3 4 5 3 2 2 0 358 356 354 351 349 347 346 344 342 340 338 337 335 334 332 330 328 326 323 320 316 312 309 306 302 299 296 294 293 292 289 285 282 278 276 274 273 270 268
248 242 238 239 241 239 236 235 236 238 243 244 247 253 254 252 263 283 317 6 26 50 56 46 39 34 28 22 19 17 14 12 12 11 8 6 3 360 358 356 356 357 356 355 355 354 353 352 350 348 346 344 344 343 341 339 338 337 336 334 332 330 328 327 325 323 319 315 312 309 307 305 302 300 298 296 292 288 284 281 279 277 275 272 270
243 238 235 236 236 235 232 232 233 235 239 242 246 252 253 250 252 260 255 238 53 59 61 39 27 24 18 12 9 10 9 8 8 8 6 3 358 353 352 351 350 350 349 348 348 347 347 347 345 344 343 343 342 341 340 338 337 337 335 333 332 331 329 327 326 324 321 318 316 313 311 309 307 305 303 301 299 294 289 286 284 282 279 275 272
239 234 233 233 232 230 229 230 231 233 238 242 245 248 250 245 241 246 246 228 206 91 28 9 2 0 2 4 3 3 4 5 6 5 3 359 352 347 345 345 345 345 344 343 343 342 342 343 343 342 342 341 340 340 339 338 337 338 336 335 334 333 330 327 325 324 322 320 318 316 314 312 309 307 305 304 302 300 295 290 287 283 280 277 275
235 232 231 230 229 227 227 228 230 234 238 240 240 241 242 236 232 235 241 240 236 250 301 328 333 337 346 354 358 358 358 0 1 360 357 354 349 343 340 339 340 341 341 340 340 339 340 340 341 341 341 340 340 341 340 339 339 339 338 337 338 336 332 329 327 325 323 321 319 316 314 313 310 308 306 304 303 301 298 294 290 286 282 279 277
233 230 228 227 226 226 228 229 231 234 237 237 236 236 234 228 222 222 228 236 242 246 271 298 310 320 331 342 349 350 349 352 355 355 353 350 347 343 340 339 339 339 339 339 337 338 338 338 338 340 341 341 341 342 342 342 341 340 340 340 339 337 333 331 331 329 326 324 321 319 316 314 312 309 307 305 303 301 298 295 293 289 286 282 278
230 228 227 226 225 226 228 230 231 233 234 233 231 229 226 218 212 210 213 225 239 245 258 279 293 303 315 328 338 343 344 346 348 350 349 347 345 343 340 338 338 336 336 336 335 336 337 337 338 340 341 341 342 342 343 343 342 341 341 341 339 336 334 333 333 331 329 327 325 323 320 317 315 312 309 306 303 301 298 296 293 290 288 285 281
228 228 228 226 225 226 226 227 229 230 231 227 223 220 217 211 211 211 211 223 245 248 252 265 279 288 302 318 330 336 339 341 342 343 343 343 342 340 337 335 334 333 333 333 333 334 335 336 338 339 340 341 342 343 343 343 342 341 341 340 339 337 335 333 332 331 330 328 327 325 323 321 318 314 311 308 304 302 299 296 294 291 288 285 282
229 229 227 225 224 223 222 221 223 224 225 221 216 214 210 210 218 222 219 227 245 249 250 259 270 280 294 311 323 329 332 334 336 337 337 337 337 337 335 333 332 331 330 330 331 333 334 335 336 338 340 341 342 343 343 342 341 341 340 339 339 337 335 333 332 331 330 329 328 327 325 323 320 316 313 309 306 303 300 298 296 293 291 287 283
229 228 226 223 220 219 219 220 220 220 220 218 214 211 211 215 222 225 223 228 238 245 250 257 265 277 290 303 314 321 325 327 328 330 331 331 332 332 331 330 330 329 327 327 329 330 331 332 334 337 339 341 342 342 342 341 341 341 340 339 338 337 335 334 333 332 331 329 328 327 325 323 321 317 314 311 307 305 303 300 298 296 293 290 286
227 227 224 221 218 218 219 219 219 218 218 217 215 215 218 220 223 225 227 231 238 246 253 261 267 277 287 297 306 314 318 320 322 324 325 326 327 327 327 327 328 327 325 324 326 328 328 330 333 336 338 340 340 339 339 340 341 340 339 338 337 336 336 335 334 333 332 331 329 327 326 324 321 318 315 313 310 308 305 303 300 298 295 292 288
224 224 223 221 219 218 217 217 217 218 218 218 218 219 222 225 226 230 235 240 246 253 259 267 272 279 286 294 302 307 312 315 316 318 320 322 323 323 324 325 326 324 323 322 324 325 327 329 332 335 336 337 338 337 337 338 339 339 338 337 337 336 335 335 335 334 333 331 330 328 327 325 322 320 317 315 313 311 308 306 303 300 297 294 291
224 224 223 222 221 219 218 218 219 220 221 220 220 223 228 231 234 237 242 247 252 258 264 271 277 282 287 293 299 303 307 310 312 315 317 318 320 320 321 322 322 321 321 320 321 322 324 326 330 333 334 336 336 336 336 336 337 337 337 336 335 335 335 334 334 334 333 332 331 329 328 326 324 322 320 318 315 313 311 308 305 302 299 296 293
226 226 224 224 223 222 221 221 221 222 223 223 224 228 233 235 239 244 248 251 256 261 267 273 278 284 288 293 298 301 305 308 311 312 314 316 317 318 319 320 320 319 319 318 318 319 321 324 328 330 332 333 334 334 334 335 336 336 336 335 335 335 334 334 334 333 333 332 331 330 329 328 326 324 322 320 318 316 314 311 308 305 302 298 295
228 227 227 226 226 226 225 225 225 226 226 226 228 233 237 240 244 249 252 256 261 265 271 276 281 285 290 294 297 301 304 307 309 310 312 313 315 316 317 318 318 318 318 317 317 318 320 323 325 328 330 332 333 333 333 334 335 335 335 335 335 335 334 334 334 333 333 333 332 331 331 329 328 326 324 322 320 319 317 315 311 308 305 302 298
229 229 229 229 229 229 228 228 228 229 229 230 231 234 239 245 249 251 254 259 263 268 273 278 282 287 292 295 298 301 304 306 308 309 309 310 312 313 315 315 315 315 316 316 317 317 318 321 324 326 328 330 331 332 332 332 333 334 334 335 335 335 335 335 334 334 334 333 332 332 332 331 329 328 326 324 323 322 321 319 316 313 309 305 301
231 231 230 230 231 231 231 231 231 231 232 232 233 235 239 246 252 256 258 261 264 269 273 277 282 287 292 296 300 303 305 305 306 306 306 307 309 311 312 312 313 313 313 314 315 316 317 319 322 324 326 328 330 330 330 331 332 333 333 334 335 335 336 336 335 335 334 334 334 334 333 333 331 330 328 327 326 326 325 324 322 319 315 310 305
233 233 233 232 232 233 233 233 234 234 233 234 235 238 240 244 250 256 260 263 266 270 273 277 282 287 292 296 300 303 304 304 303 303 304 305 306 308 309 309 310 310 311 312 314 315 316 318 321 323 325 326 328 328 329 329 330 331 332 334 335 335 336 336 336 336 335 335 335 335 335 334 333 332 330 329 328 328 328 327 326 323 320 316 312
235 235 235 234 234 234 234 235 236 236 236 236 237 239 242 245 249 253 258 263 267 270 273 277 281 286 290 294 298 301 302 302 302 302 302 303 304 305 307 307 308 309 310 311 313 314 315 317 320 322 323 325 326 327 327 328 329 330 332 333 334 335 336 336 336 337 337 336 336 335 335 335 334 333 332 331 330 329 329 329 328 327 324 321 318
237 237 236 236 236 236 236 237 237 238 239 239 240 242 245 248 251 253 256 260 264 267 271 274 278 282 286 291 295 298 300 301 302 302 301 301 302 305 306 306 306 307 308 310 310 312 314 316 318 320 322 323 324 325 325 326 327 329 331 332 333 334 335 336 337 337 337 337 336 336 335 335 335 334 333 332 331 330 330 331 331 330 328 325 322
240 240 238 238 238 238 238 239 239 240 240 241 243 245 247 250 253 255 257 258 261 264 267 271 275 278 282 287 292 295 297 299 301 302 301 301 302 304 305 305 305 306 307 308 308 310 312 314 316 318 319 321 323 323 324 325 326 327 329 331 332 334 335 336 337 338 338 337 336 336 336 336 336 335 334 332 331 331 331 332 332 332 331 328 325
241 242 241 240 240 240 240 241 241 242 243 243 245 247 249 251 253 256 258 259 261 263 266 270 274 277 279 283 287 290 293 295 298 301 301 301 302 303 303 303 302 303 305 306 307 308 310 312 314 316 318 319 321 322 323 324 325 326 328 329 331 332 334 335 337 338 338 337 336 336 335 336 337 336 335 333 332 332 332 333 333 333 332 331 329
241 242 243 243 242 242 242 242 243 243 244 245 246 247 249 251 253 255 257 258 260 262 265 268 271 274 277 280 282 286 288 291 294 298 300 300 301 301 301 301 301 302 303 305 306 307 308 310 312 315 316 318 319 320 322 323 323 325 327 328 330 332 333 335 336 337 338 337 336 335 335 336 337 337 335 334 333 333 332 333 334 334 333 332 331
241 242 243 243 243 243 243 243 243 243 245 246 247 247 249 250 252 254 256 258 259 261 263 266 269 271 275 278 280 282 285 288 291 294 296 298 299 300 300 300 300 301 303 304 305 305 306 308 310 313 315 316 317 319 321 322 323 324 326 327 329 331 332 334 336 337 337 337 336 335 335 336 337 337 336 335 333 333 333 333 333 333 333 333 333
241 242 243 243 244 244 243 243 243 243 244 245 246 247 249 250 252 254 256 258 259 260 262 265 268 271 275 278 278 280 282 285 287 290 293 295 297 299 299 299 299 300 301 303 303 304 305 306 309 311 314 315 316 317 319 321 322 323 325 327 328 330 332 333 335 336 337 337 336 335 335 335 336 337 336 335 334 333 333 332 333 333 333 333 333
241 242 242 243 244 245 244 244 244 244 244 245 246 247 249 250 252 254 256 257 258 259 261 264 268 271 275 276 276 277 280 282 285 287 290 292 294 296 297 297 297 298 300 301 302 302 304 305 307 310 312 314 315 316 318 320 321 323 324 326 327 329 331 332 334 335 336 336 336 335 335 334 335 336 336 336 334 333 332 332 332 332 332 332 332
241 241 242 242 244 245 245 244 244 245 245 246 247 248 250 251 253 255 256 256 258 260 262 265 268 272 274 274 274 276 279 282 284 287 289 290 292 294 295 296 296 297 298 300 300 301 303 304 307 309 312 313 314 315 317 319 321 322 323 325 327 328 330 331 333 334 335 336 336 335 334 334 334 335 336 335 334 333 332 331 330 331 331 331 331
240 241 242 242 243 244 245 245 245 245 246 247 249 250 251 252 253 254 255 257 258 260 263 266 268 271 273 272 272 273 277 280 283 286 288 289 291 292 294 294 295 296 297 298 299 300 302 304 306 309 311 312 313 314 316 318 319 321 323 324 326 327 329 330 331 333 334 335 335 335 334 334 334 334 334 335 334 333 332 331 330 330 330 330 331
240 241 242 242 243 244 245 246 245 246 247 248 249 250 251 252 253 254 256 257 259 261 263 266 268 270 272 271 270 272 275 278 281 284 287 288 290 291 293 294 294 295 296 297 297 299 301 303 305 308 310 311 313 313 314 316 318 320 322 324 325 326 327 329 330 332 333 334 334 334 334 333 333 333 333 334 334 333 331 330 329 329 329 330 331
240 241 242 243 244 244 246 246 246 247 248 249 249 250 251 252 253 255 256 258 259 261 263 266 268 270 270 270 270 270 272 276 279 282 285 287 289 291 293 293 294 295 295 295 295 296 299 302 304 307 309 311 312 313 313 314 316 318 321 322 324 325 326 327 329 330 332 333 334 334 333 333 332 332 333 333 333 332 331 330 329 328 329 330 331
240 242 242 243 244 245 246 247 248 248 249 249 250 251 252 253 254 255 257 258 259 261 263 266 268 269 269 269 268 268 271 274 277 280 283 285 287 290 292 293 293 294 294 294 294 295 297 300 303 306 308 310 311 312 313 314 315 317 319 321 322 323 325 326 327 329 330 332 333 333 333 332 332 331 331 332 332 332 330 329 328 327 328 329 330
240 242 244 244 245 245 246 247 248 249 249 250 251 252 253 254 255 256 257 258 259 261 263 265 267 268 268 268 267 268 270 273 275 278 281 283 285 288 291 292 293 293 293 292 293 294 296 298 301 304 307 308 310 312 313 314 315 316 317 319 321 322 323 325 326 328 329 330 331 332 332 332 331 331 330 331 331 331 329 328 327 327 327 328 329
239 242 244 245 246 246 247 248 249 249 250 251 252 253 254 255 256 257 258 259 260 261 263 264 266 267 267 267 267 268 270 272 273 276 279 281 284 286 289 292 293 293 292 292 292 293 295 297 299 302 305 307 309 312 313 314 315 317 317 318 320 321 322 324 325 327 328 329 329 330 330 331 330 330 329 329 330 330 329 327 326 326 326 327 327
240 241 243 245 246 247 248 248 248 249 250 251 253 254 255 256 257 258 259 260 260 261 262 263 264 265 265 264 265 267 269 271 273 275 277 280 282 285 288 291 292 292 291 291 291 292 293 296 298 301 303 305 307 310 312 313 315 316 316 317 318 320 321 322 324 325 326 327 327 328 329 329 329 328 328 328 329 329 328 326 325 325 325 325 325
241 241 242 244 245 246 247 247 248 249 250 252 253 254 256 256 257 258 258 259 259 260 261 261 262 262 262 262 264 265 267 269 271 273 276 278 281 283 285 288 290 291 291 290 290 291 293 295 297 299 301 303 305 308 310 312 313 314 315 316 317 318 320 321 323 324 324 325 325 326 327 327 327 327 327 327 327 327 327 326 324 323 323 323 324
242 242 242 243 244 245 246 247 247 249 251 252 253 255 256 257 257 258 259 259 259 260 260 260 260 260 261 261 262 263 265 267 269 271 273 276 279 280 282 285 288 289 289 289 289 290 292 294 296 298 300 302 304 306 308 309 311 312 313 315 316 317 318 320 321 322 323 323 324 324 325 325 325 326 326 326 326 326 326 324 323 322 322 322 322
243 242 242 242 243 244 245 246 247 249 251 253 254 256 256 257 258 259 259 259 259 259 260 260 259 259 260 260 260 262 264 266 268 270 272 274 276 277 279 282 285 287 288 288 288 289 292 294 296 297 299 300 302 304 305 307 309 310 312 313 314 316 317 319 320 321 322 322 322 322 323 323 323 324 324 325 325 325 324 323 322 321 320 319 320